Showing default

NETSAT-3, 46505

Orbit data source: Space-Track

NETSAT-3, 46505 is a payload satellite owned by ZfT (DE) in SSO that was launched on Mon, 28 Sep 2020 UTC via a SOYUZ-2-1B launch vehicle from the Plesetsk Missile And Space Complex (PKMTR). Payload-class satellites include a variety of spacecraft equipped with specific instruments for various scientific and technological missions. These include communications satellites like Starlink; space stations such as the ISS; scientific satellites like the Hubble; Earth observation satellites from companies like Planet Labs, Umbra, and HawkEye 360; GPS; miniature CubeSats for education and research; and military/defense satellites.

Loading next visibility...
Identifier
46505, 2020-068V
Orbit
SSO
Last TLE update
4 hours ago
Origin
Manufacturer
ZfT
Mission
Operational Commercial Technology
Bus & Motor
CUBESAT 3U, Unknown motor
Mass
4 kg wet, 4 kg dry
Launch date (UTC)
2020-09-28 (5 years ago)
Launch vehicle
SOYUZ-2-1B
Launch site
Plesetsk Missile And Space Complex (PKMTR)
Object type
Payload
Rocket body
Debris
Shape & HBR
Box, Unknown HBR
Radar Cross Section
0.035 m², Small (<0.1 m²)

Expand to show TLE details & history

TLE from 4 hours ago
0 NETSAT-3
1 46505U 20068V   25129.50592359  .00012556  00000-0  45980-3 0  9991
2 46505  97.8432 104.6170 0005977 341.2961  18.8057 15.28163165253768
Epoch: 2025-05-09T12:08Z
Definitive object data (Epoch: 2025-05-09T12:08:31.798Z)
Latitude
0.00002°
Longitude
54.92341°
Altitude
480.51 km
Speed
7.627 km/s
True Right ascension
06h 58m 28s
True Declination
0° 00' 00"
Sunlit
Object was in daylight at TLE epoch
Visualization TLE readout
Latitude
-58.43534°
Longitude
68.00326°
Altitude
500.761 km
Speed
7.614 km/s
Apparent Right ascension
10h 44m 37s
Apparent Declination
-55° 22' 19"
Sunlit
Object is in daylight
Visualization observer readout
Local Sidereal Time
00:46:24
Azimuth
137.729° SSE
Elevation
-64.653°
Doppler factor
1
Orbital elements
Apogee altitude
482.376 km
Perigee altitude
474.18 km
Semi-major axis
6,856.415 km
Eccentricity
0.0005977
Inclination
97.8432°
RAAN
104.617°
Arg. of periapsis
341.2961°
True anomaly
18.82779°
Mean anomaly
18.8057°
Eccentric anomaly
18.81675°
Mean motion
3.82294 °/min
BSTAR
0.0004598
Orbital period
94.17 mins
Loading maneuver chart data...
Loading SW <> Apogee altitude chart data...
Loading historical data...
Loading historical data...
Loading historical data...
Loading historical data...
Loading historical data...
Loading historical data...
Loading historical data...

NETSAT-3 Visibility forecast

Observer location: undefined°, undefined°

Span
Click to sort rows by Start time (UTC) header in descending order
Start Az.
Max El. time (UTC)
Max El. Az.
Max El.
End time (UTC)
End Az.
5 mins2025-05-09 21:42:54.530Z124.356° SE2025-05-09 21:44:54.530Z83.836° E24.24°2025-05-09 21:47:54.530Z15.65° NNE
4 mins2025-05-10 10:43:54.530Z52.61° ENE2025-05-10 10:45:54.530Z117.023° SE27.911°2025-05-10 10:47:54.530Z158.292° S
|